Location: Holcomb Observatory and Planetarium
(39.8415°N, 86.1714°W)
Time: 21:58:39
(UTC-04:00)

ISS - Visible Passes

Search period start: 26 March 2015 00:00
Search period end: 05 April 2015 00:00
Orbit: 396 x 406 km, 51.6° (Epoch: 26 March)

Date Brightness Start Highest point End Pass type
(mag) Time Alt. Az. Time Alt. Az. Time Alt. Az.
26 Mar -0.5 05:54:10 10° NNW 05:55:58 14° NNE 05:57:50 10° NE visible
27 Mar 0.0 05:03:00 11° NNE 05:03:00 11° NNE 05:03:35 10° NNE visible
27 Mar -1.6 06:36:37 10° NW 06:39:33 31° NNE 06:42:29 10° E visible
28 Mar -0.9 05:44:30 15° NNW 05:46:01 20° NNE 05:48:32 10° ENE visible
29 Mar 0.0 04:53:32 13° NE 04:53:32 13° NE 04:54:23 10° NE visible
29 Mar -3.0 06:26:09 10° NW 06:29:19 64° NE 06:32:31 10° ESE visible
30 Mar -1.9 05:35:21 32° N 05:35:50 34° NNE 05:38:51 10° E visible
31 Mar 0.2 04:44:46 11° ENE 04:44:46 11° ENE 04:44:53 10° ENE visible
31 Mar -3.2 06:17:24 27° WNW 06:18:50 51° SW 06:21:58 10° SE visible
01 Apr -1.5 05:27:07 25° ESE 05:27:07 25° ESE 05:28:37 10° ESE visible
01 Apr -1.2 07:00:36 10° WSW 07:01:24 11° SW 07:02:05 10° SW visible
02 Apr -1.2 06:09:47 15° S 06:09:47 15° S 06:10:36 10° S visible
02 Apr -1.5 21:08:09 10° S 21:09:48 16° SE 21:09:48 16° SE visible
03 Apr -3.4 21:49:35 10° SW 21:52:37 74° SSW 21:52:37 74° SSW visible
04 Apr -2.8 20:56:17 10° SSW 20:59:19 38° SE 21:02:23 10° ENE visible
04 Apr -1.0 22:32:57 10° W 22:35:04 24° NW 22:35:04 24° NW visible
